Location: Leiter
(44.7178°N, 106.2687°W)
Time: 17:18:05
(UTC+00:00)

N. Korean satellite - Visible Passes

Search period start: 22 January 2022 00:00
Search period end: 01 February 2022 00:00
Orbit: 447 x 491 km, 97.3° (Epoch: 21 January)

Date Brightness Start Highest point End Pass type
(mag) Time Alt. Az. Time Alt. Az. Time Alt. Az.
22 Jan 7.2 12:27:47 10° N 12:30:22 44° N 12:30:22 44° N visible
23 Jan 9.9 00:38:22 10° WSW 00:39:53 12° W 00:41:24 10° WNW visible
23 Jan 8.2 11:58:48 10° NNE 12:01:17 33° ENE 12:01:17 33° ENE visible
23 Jan 8.2 13:32:56 10° NNW 13:35:04 15° WNW 13:35:21 15° WNW visible
24 Jan 9.4 11:30:18 10° NE 11:32:12 18° ENE 11:32:12 18° ENE visible
24 Jan 7.3 13:02:54 10° N 13:06:07 30° WNW 13:06:15 30° WNW visible
25 Jan 6.4 12:33:25 10° N 12:37:03 70° WNW 12:37:11 69° W visible
26 Jan 10.2 00:44:43 10° WSW 00:45:31 11° W 00:46:19 10° WNW visible
26 Jan 7.5 12:04:18 10° NNE 12:07:51 48° E 12:08:05 47° ESE visible
26 Jan 8.4 13:38:49 10° NW 13:40:34 13° WNW 13:42:09 11° W visible
27 Jan 9.1 11:35:38 10° NE 11:38:31 21° E 11:39:02 21° ESE visible
27 Jan 7.5 13:08:32 10° NNW 13:11:37 26° WNW 13:13:06 20° WSW visible
28 Jan 6.5 12:38:56 10° N 12:42:32 59° WNW 12:44:02 31° SW visible
29 Jan 7.1 12:09:42 10° NNE 12:13:18 57° E 12:15:01 28° SSE visible
29 Jan 8.5 13:44:41 10° NW 13:45:57 11° WNW 13:47:12 10° W visible
30 Jan 8.8 11:40:54 10° NE 11:43:56 25° E 11:46:03 15° SE visible
30 Jan 7.7 13:14:04 10° NNW 13:16:59 23° WNW 13:19:52 10° WSW visible
31 Jan 9.9 11:13:10 10° ENE 11:14:26 11° E 11:15:42 10° ESE visible
31 Jan 6.7 12:44:20 10° N 12:47:52 50° WNW 12:51:16 11° SSW visible
